Regional Weather Roundup
Issued by NWS Kansas City/Pleasant Hill, MO

Home | Current Version | Previous Version | Graphics & Text | Print | Product List | Glossary Off
Versions: 1 2 3 4 5 6 7 8 9 10 11 12 13 14 15 16 17 18 19 20 21 22 23 24 25 26 27 28 29 30 31 32 33 34 35 36 37 38 39 40 41 42 43 44 45 46 47 48 49 50

000
ASUS43 KEAX 210110
RWREAX

WEATHER ROUNDUP FOR EASTERN KANSAS AND NORTHWEST MISSOURI
NATIONAL WEATHER SERVICE KANSAS CITY/PLEASANT HILL MO
800 PM CDT MON OCT 20 2014

KSZ040-057-103>105-MOZ028-029-037-043-210200-
...KANSAS CITY METROPOLITAN AREA...

CITY           SKY/WX    TMP DP  RH WIND       PRES   REMARKS
K.C. INTL      CLEAR     63  41  44 N3        30.05R
K.C. DOWNTOWN  CLEAR     62  47  57 CALM      30.04R
LEES SUMMIT    CLEAR     63  43  48 CALM      30.05R
OLATHE - IXD   CLEAR     57  46  66 N6        30.05S
OLATHE - OJC   CLEAR     64  45  49 N3        30.04R
LAWRENCE       CLEAR     54  46  74 CALM      30.05R HAZE

$$

MOZ001>008-011>017-020>025-030>033-038>040-044>046-053-054-210200-
...NORTHERN AND CENTRAL MISSOURI...

CITY           SKY/WX    TMP DP  RH WIND       PRES   REMARKS
ST. JOSEPH     CLEAR     52  43  71 CALM      30.05R
MOSBY          CLEAR     54  48  82 CALM      30.05R
WHITEMAN AFB   CLEAR     62  45  53 CALM      30.04R
CLINTON        CLEAR     55  48  76 CALM      30.04R
SEDALIA        CLEAR     61  42  49 CALM      30.05R
WARSAW         NOT AVBL
MARSHALL       CLEAR     61  48  63 N3        30.05S
CHILLICOTHE      N/A     53  47  79 CALM      30.05R
MOBERLY        CLEAR     57  41  54 CALM      30.04R
KIRKSVILLE     CLEAR     51  45  79 CALM      30.03S

$$

MOZ041-047>049-056>058-063>065-088>090-097-210200-
...EASTERN AND SOUTHERN MISSOURI...

CITY           SKY/WX    TMP DP  RH WIND       PRES   REMARKS
ST. LOUIS INTL CLEAR     62  44  51 NW3       30.01R
SPIRIT OF STL  CLEAR     51  47  86 CALM      30.00R
COLUMBIA       CLEAR     59  43  55 NW6       30.04R
JEFFERSON CITY CLEAR     60  44  55 NW5       30.03R
MEXICO         CLEAR     55  48  76 W5        30.03R
ROLLA          CLEAR     58  44  60 NW6       30.02R
LEBANON        CLEAR     61  52  72 CALM      30.04S
OSAGE BEACH    CLEAR     61  46  59 N5        30.03R
SPRINGFIELD    CLEAR     60  54  80 CALM      30.03S
BRANSON        CLEAR     61  57  88 SW3       30.05R
NEVADA         CLEAR     59  52  77 N5        30.05R
JOPLIN         CLEAR     61  56  83 S3        30.04R
WEST PLAINS    CLEAR     62  57  83 W6        30.03R

$$

IAZ060-094-KSZ022-034>040-054-083-096-NEZ052-066-093-210200-
...KANSAS...SOUTHEAST NEBRASKA AND IOWA...

CITY           SKY/WX    TMP DP  RH WIND       PRES   REMARKS
TOPEKA         CLEAR     58  47  66 CALM      30.05R
MANHATTAN      CLEAR     54  45  71 CALM      30.05R
EMPORIA        CLEAR     63  46  54 NE5       30.05R
CHANUTE        CLEAR     60  50  69 N5        30.04R
WICHITA        CLEAR     73  44  35 NE6       30.05R
OMAHA          CLEAR     53  46  77 CALM      30.05R
LINCOLN        CLEAR     57  41  55 CALM      30.07R
FALLS CITY     CLEAR     62  34  35 N3        30.05R
LAMONI         CLEAR     54  43  66 W6        30.04R
DES MOINES     CLEAR     61  39  44 NW3       30.03R

$$



USA.gov is the U.S. government's official web portal to all federal, state and local government web resources and services.